Volver al catálogo

CZ-6A DEB

ActivoPO
NORAD 60771·DEBRIS·🇨🇳 China

Lanzado Aug 6, 2024 desde Taiyuan Satellite Launch Center

Loading…

Próximos Pases (próximas 24 horas)

TLE

ActualizadoSource: Space-Track

Época: Sep 14, 2026, 10:46 UTC

1 60771U 24140EW  26257.44929050  .00003294  00000-0  88007-3 0  9991
2 60771  88.9681 258.5335 0051039  34.2825 326.1657 14.47391041109099

Sigue CZ-6A DEB en tiempo real con AllMySat

Download on the App Store